Tracking 29494 objects as of 8-Sep-2024
HD Live streaming from Space Station
objects crossing your sky now

AMOS 2

Track AMOS 2 now!
AMOS 2 is classified as:


NORAD ID: 28132
Int'l Code: 2003-059A
Perigee: 36,022.4 km
Apogee: 36,061.4 km
Inclination: 6.9 °
Period: 1,448.8 minutes
Semi major axis: 42412 km
RCS: 36.2156 m2 (large)
Launch date: December 27, 2003
Source: Israel (ISRA)
Launch site: TYURATAM MISSILE AND SPACE COMPLEX (TTMTR)

Ku-band communications, Europe, Middle East, East Coast of USA.
Your satellite tracking list
Your tracking list is empty




NASA's NSSDC Master Catalog

Two Line Element Set (TLE):
1 28132U 03059A   24251.58574681 -.00000007  00000-0  00000-0 0  9999
2 28132   6.9177  69.9921 0004593 102.0933 110.5129  0.99393148 75606
Source of the keplerian elements: AFSPC